Weather History for Veracruz Airport, Mexico

Change the Weather History Date:

Sunday, January 6, 2013

  Actual Average Record
Temperature  
Mean Temperature 68 °F -  
Max Temperature 69 °F 78 °F 93 °F (1997)
Min Temperature 66 °F 62 °F 55 °F (2000)
Cooling Degree Days 2    
Growing Degree Days 18 (Base 50)    
Moisture  
Dew Point 59 °F    
Average Humidity 72    
Maximum Humidity 78    
Minimum Humidity 64    
Precipitation  
Precipitation 0.00 in - - ()
Sea Level Pressure  
Sea Level Pressure 30.15 in    
Wind  
Wind Speed 12 mph ()    
Max Wind Speed 21 mph    
Max Gust Speed 32 mph    
Visibility 6.4 miles    
Events      
Averages and records for this station are not official NWS values.
T = Trace of Precipitation, MM = Missing Value Source: Averaged Metar Reports

Daily Weather History Graph

Daily Weather History Graph

Search for Another Location

Airport:

Trip Planner

Search our weather history database for the weather conditions in past years. The results will help you decide how hot, cold, wet, or windy it might be!

Date:

Astronomy

Jan. 06, 2013 Rise Set
Actual Time 6:59 AM CST 6:01 PM CST
Civil Twilight 6:36 AM CST 6:25 PM CST
Nautical Twilight 6:08 AM CST 6:52 PM CST
Astronomical Twilight 5:42 AM CST 7:19 PM CST
Moon 1:33 AM CST (1/6) 1:15 PM CST (1/6)
Length of Visible Light 11h 49m
Length of Day
11h 02m
Waning Crescent, 33% of the Moon is Illuminated
Jan 6
Waning Crescent
Jan 11
New
Jan 18
First Quarter
Jan 26
Full
Feb 3
Last Quarter

Hourly Weather History & Observations

Time (CST) Temp. Dew Point Humidity Pressure Visibility Wind Dir Wind Speed Gust Speed Precip Events Conditions
4:48 AM 68.0 °F 59.0 °F 73% 30.13 in 6.0 mi North 8.1 mph - N/A   Overcast
5:43 AM 68.0 °F 59.0 °F 73% 30.09 in 6.0 mi North 10.4 mph - N/A   Overcast
6:43 AM 68.0 °F 59.0 °F 73% 30.14 in 5.0 mi North 12.7 mph - N/A   Overcast
7:42 AM 68.0 °F 59.0 °F 73% 30.16 in 5.0 mi NNE 11.5 mph - N/A   Overcast
8:43 AM 69.8 °F 59.0 °F 68% 30.14 in 6.0 mi North 12.7 mph - N/A   Overcast
9:42 AM 69.8 °F 59.0 °F 68% 30.20 in 6.0 mi North 20.7 mph - N/A   Overcast
10:43 AM 68.0 °F 57.2 °F 68% 30.20 in 6.0 mi North 20.7 mph 32.2 mph N/A   Overcast
11:43 AM 68.0 °F 60.8 °F 78% 30.15 in 6.0 mi NNE 13.8 mph - N/A   Overcast
12:43 PM 69.8 °F 60.8 °F 73% 30.15 in 6.0 mi NNE 15.0 mph - N/A   Overcast
1:43 PM 69.8 °F 60.8 °F 73% 30.13 in 7.0 mi NNE 19.6 mph - N/A   Overcast
2:43 PM 69.8 °F 59.0 °F 68% 30.07 in 7.0 mi North 19.6 mph - N/A   Overcast
3:43 PM 69.8 °F 59.0 °F 68% 30.10 in 7.0 mi North 18.4 mph - N/A   Overcast
4:47 PM 69.8 °F 57.2 °F 64% 30.12 in 7.0 mi North 11.5 mph 23.0 mph N/A   Overcast
5:55 PM 68.0 °F 59.0 °F 73% 30.12 in 7.0 mi NNW 11.5 mph 23.0 mph N/A   Overcast
6:42 PM 68.0 °F 59.0 °F 73% 30.14 in 7.0 mi North 17.3 mph - N/A   Overcast
7:48 PM 66.2 °F 59.0 °F 78% 30.18 in 7.0 mi North 11.5 mph 23.0 mph N/A   Overcast
8:51 PM 66.2 °F 59.0 °F 78% 30.20 in 7.0 mi North 20.7 mph - N/A   Overcast
9:47 PM 66.2 °F 57.2 °F 73% 30.21 in 7.0 mi North 13.8 mph - N/A   Overcast
10:48 PM 68.0 °F 57.2 °F 68% 30.20 in 7.0 mi North 11.5 mph - N/A   Mostly Cloudy